Pagina principale
METAR-TAF:

METAR-TAF

Aeroporti :

Hartness State Airport

Springfield, Vermont, Stati Uniti

latitudine: 43-20-33N, longitudine: 072-31-18W, altezza: 175 m

Osservazione

Il bollettino è stato emesso 38 minuti fa, alle 22:54 UTC
Vento calmo
Temperature 10°C
Umidità 100%
Pressione 1007 hPa
Visibilità: 14.5 km
Cielo coperto ad un'altezza di 400 ft

METAR: KVSF 152254Z AUTO 00000KT 9SM OVC004 10/10 A2975 RMK AO2 SLP078 T01000100

Ora: 19:32 (23:32 UTC)


TAF: mancante

Osservazioni e previsioni meteorologiche di più di 4000 aeroporti (messaggi METAR e TAF).

Le stazioni disponibili sono rappresentate dai dischi gialli e rossi sulla carta.

Puntare il mouse per vedere il nome della stazione.

Clicca sopra per visualizzare le osservazioni e previsioni meteorologiche.

Per cambiare la mappa : fare clic sui pulsanti verdi con una croce nera per ingrandire, il pulsante verde con un trattino per diminuire, o sulla freccia verde per le mappe adiacenti.


METAR-TAF: